Location: Agadir Mansour Mhndou
(31.2424°N, 8.7730°W)
Time: 06:22:11
(UTC+00:00)

SWIFT - Pass Details

Date: 16 October 2021
Orbit: 543 x 558 km, 20.6° (Epoch: 28 November)

Event Time Altitude Azimuth Distance (km) Brightness Sun altitude
Rises 19:16:25 0° 243° (WSW) 2,681 7.0 -16.6°
Reaches altitude 10° 19:19:13 10° 224° (SW) 1,789 5.5 -17.2°
Maximum altitude 19:22:08 18° 180° (S) 1,334 4.3 -17.9°
Enters shadow 19:23:29 16° 155° (SSE) 1,445 4.2 -18.2°
